Social login voor leden:
METAR EBOS 171920Z 20007KT CAVOK 05/04 Q1022 NOSIG
TAF EBOS 171710Z 1718/1824 18012KT 9999 FEW018 SCT040 BECMG 1722/1724 BKN008 TEMPO 1810/1824 16016G28KT BECMG 1810/1812 SCT015 PROB40 TEMPO 1823/1824 4000 SHRA RA BKN012 BKN025TCU

Sonaca 200, onze nieuwe parel van Belgische makelij!

In maart 2019 nemen wij ons eerste gloednieuw toestel van het type Sonaca 200 in gebruik! Dit is een volgende stap in het strategisch plan om onze vloot te vernieuwen. Dit toestel is van Belgische makelij en oogt niet alleen zeer mooi, maar is ook zeer performant. Het toestel zal enerzijds gebruikt worden als lestoestel, maar wordt anderzijds ook ter beschikking gesteld van onze leden. Wil je ook vliegen op de Sonaca 200? Aarzel niet om ons te contacteren om lid te worden!

 

Opleiding Piloot
Meevliegen
Visit Us
Agenda
Opleiding Piloot
Doopvluchten
Visit Us
Volgende activiteit
Noordzee Vliegclub - Nieuwpoortsesteenweg 947 8400 Oostende - Tel 059 30 04 79 - Dit e-mailadres wordt beveiligd tegen spambots. JavaScript dient ingeschakeld te zijn om het te bekijken.

 - Copyright 2017 ©